Regional Weather Roundup
Issued by NWS

Home | Current Version | Previous Version | Text Only | Print | Product List | Glossary Off
Versions: 1 2 3 4 5 6 7 8 9 10 11 12 13 14 15 16 17 18 19 20 21 22 23 24 25 26 27 28 29 30 31 32 33 34 35 36 37 38 39 40 41 42 43 44 45 46 47 48 49 50

009
ASUS44 KJAN 011110
RWRMS

MISSISSIPPI HOURLY WEATHER ROUNDUP
NATIONAL WEATHER SERVICE JACKSON MS
600 AM CDT WED OCT 01 2014

NOTE: "FAIR: INDICATES FEW OR NO CLOUDS BELOW 12,000 FEET WITH NO
SIGNIFICANT WEATHER AND/OR OBSTRUCTIONS TO VISIBILITY.

MSZ001>002-007>008-010>013-018>021-025>028-034>036-011200-
NORTHWEST MISSISSIPPI

CITY           SKY/WX    TMP DP  RH WIND       PRES   REMARKS
CLARKSDALE     FAIR      66  64  94 SE6       29.91R
CLEVELAND      PTSUNNY   71  67  86 SE6       29.89S
GREENWOOD      CLEAR     63  60  90 CALM      29.91R
GREENVILLE     CLOUDY    72  65  78 SE6       29.89R
GRENADA        FAIR      61  61 100 CALM      29.92S
OLIVE BRANCH   CLEAR     63  63 100 SE3       29.92S
OXFORD         FAIR      59  57  94 CALM      29.94R
TUNICA         SUNNY     61  59  94 CALM      29.91S FOG
$$

MSZ003>006-009-014>017-022>024-029>033-037>039-011200-
NORTHEAST MISSISSIPPI

CITY           SKY/WX    TMP DP  RH WIND       PRES   REMARKS
COLUMBUS AFB   CLEAR     59  59 100 CALM      29.94R
CORINTH          N/A     59  57  94 CALM      29.94R
GOLDN TRIANGLE CLEAR     61  55  82 CALM      29.93R
STARKVILLE     FAIR      57  57 100 CALM      29.94R
TUPELO         CLEAR     60  58  92 CALM      29.94R
$$

MSZ040-058-011200-
CENTRAL MISSISSIPPI

CITY           SKY/WX    TMP DP  RH WIND       PRES   REMARKS
JACKSON INTL   CLOUDY    71  69  93 SE6       29.92S FOG
JACKSON HAWKNS CLOUDY    72  69  90 SE6       29.92R FOG
MERIDIAN KEY   CLEAR     61  59  93 CALM      29.94R
MERIDIAN NAS   CLEAR     61  58  90 E3        29.94R
RAYMOND        FAIR      70  64  83 MISG      29.92R HAZE
VICKSBURG      MOCLDY    73  69  87 SE6       29.89S
$$

MSZ059>079-011200-
SOUTH MISSISSIPPI

CITY           SKY/WX    TMP DP  RH WIND       PRES   REMARKS
BROOKHAVEN     CLOUDY    72  72 100 S3        29.93S FOG
COLUMBIA       FOG       68  66  94 CALM      29.91R VSB 1/2
HATTIESBURG    PTCLDY    66  65  96 CALM      29.93S
MCCOMB         FOG       72  70  93 CALM      29.91S VSB 1
NATCHEZ        CLOUDY    72  70  94 SE7       29.90S
PINE BELT      PTCLDY    66  63  88 CALM      29.94R
$$

MSZ080>082-011200-
COASTAL MISSISSIPPI

CITY           SKY/WX    TMP DP  RH WIND       PRES   REMARKS
BILOXI         CLEAR     70  70 100 E3        29.91R
PASCAGOULA     CLEAR     64  64 100 CALM      29.92R
GULFPORT       CLEAR     70  69  97 CALM      29.90R
$$



USA.gov is the U.S. government's official web portal to all federal, state and local government web resources and services.